Weather History for Naples, FL

Change the Weather History Date:

Monday, January 2, 2012

  Actual Average Record
Temperature  
Mean Temperature 66 °F 65 °F  
Max Temperature 75 °F 75 °F 87 °F (1947)
Min Temperature 56 °F 55 °F 38 °F (1971)
Degree Days  
Heating Degree Days 0 3  
Month to date heating degree days 0 6  
Since 1 July heating degree days 25 84  
Cooling Degree Days 1 3  
Month to date cooling degree days 4 6  
Year to date cooling degree days 4 6  
Growing Degree Days 15 (Base 50)    
Moisture  
Dew Point 57 °F    
Average Humidity 74    
Maximum Humidity 100    
Minimum Humidity 48    
Precipitation  
Precipitation 0.00 in 0.05 in 1.69 in (1979)
Month to date precipitation 0.00 0.11  
Year to date precipitation 0.00 0.11  
Snow  
Snow 0.00 in - - ()
Month to date snowfall 0.0  
Since 1 July snowfall 0.0  
Snow Depth 0.00 in    
Sea Level Pressure  
Sea Level Pressure 30.16 in    
Wind  
Wind Speed 7 mph (NW)    
Max Wind Speed 20 mph    
Max Gust Speed 28 mph    
Visibility 8 miles    
Events Fog    
T = Trace of Precipitation, MM = Missing Value Source: NWS Daily Summary

Daily Weather History Graph

Daily Weather History Graph

Search for Another Location

Airport:

Trip Planner

Search our weather history database for the weather conditions in past years. The results will help you decide how hot, cold, wet, or windy it might be!

Date:

Astronomy

Jan. 02, 2012 Rise Set
Actual Time 7:14 AM EST 5:47 PM EST
Civil Twilight 6:49 AM EST 6:12 PM EST
Nautical Twilight 6:20 AM EST 6:41 PM EST
Astronomical Twilight 5:52 AM EST 7:09 PM EST
Moon 12:49 PM EST (1/2) 1:22 AM EST (1/2)
Length of Visible Light 11h 22m
Length of Day
10h 32m
Waxing Gibbous, 63% of the Moon is Illuminated
Jan 2
Waxing Gibbous
Jan 9
Full
Jan 16
Last Quarter
Jan 23
New
Jan 30
First Quarter

Hourly Weather History & Observations

Time (EST) Temp. Dew Point Humidity Pressure Visibility Wind Dir Wind Speed Gust Speed Precip Events Conditions
12:53 AM 63.0 °F 60.1 °F 90% 30.17 in 8.0 mi Calm Calm - N/A   Partly Cloudy
1:53 AM - - N/A% 30.16 in 7.0 mi Calm Calm - N/A   Clear
2:53 AM 61.0 °F 59.0 °F 93% 30.14 in 6.0 mi Calm Calm - N/A   Clear
3:18 AM 60.8 °F 59.0 °F 94% 30.14 in 0.5 mi Calm Calm - N/A Fog Fog
3:28 AM 59.0 °F 57.2 °F 94% 30.14 in 1.2 mi Calm Calm - N/A   Clear
3:30 AM 59.0 °F 57.2 °F 94% 30.14 in 4.0 mi Calm Calm - N/A   Clear
3:53 AM 59.0 °F 57.9 °F 96% 30.14 in 6.0 mi Calm Calm - N/A   Clear
4:53 AM 57.9 °F 57.0 °F 97% 30.13 in 6.0 mi Calm Calm - N/A   Clear
5:53 AM 57.9 °F 57.0 °F 97% 30.13 in 10.0 mi Calm Calm - N/A   Clear
6:53 AM 57.9 °F 55.9 °F 93% 30.14 in 8.0 mi Calm Calm - N/A   Clear
7:53 AM 59.0 °F 57.0 °F 93% 30.15 in 7.0 mi Calm Calm - N/A   Clear
8:53 AM 66.9 °F 63.0 °F 87% 30.16 in 8.0 mi Calm Calm - N/A   Clear
9:53 AM 72.0 °F 64.0 °F 76% 30.18 in 10.0 mi WSW 8.1 mph - N/A   Partly Cloudy
10:53 AM 73.0 °F 63.0 °F 71% 30.17 in 10.0 mi WNW 5.8 mph - N/A   Partly Cloudy
11:53 AM 73.0 °F 63.0 °F 71% 30.16 in 10.0 mi West 11.5 mph - N/A   Mostly Cloudy
12:53 PM 70.0 °F 64.9 °F 84% 30.14 in 10.0 mi NNW 9.2 mph - N/A   Overcast
1:03 PM 69.8 °F 64.4 °F 83% 30.13 in 9.0 mi NW 6.9 mph - N/A   Overcast
1:13 PM 69.8 °F 64.4 °F 83% 30.13 in 9.0 mi WNW 12.7 mph 19.6 mph N/A   Overcast
1:53 PM 70.0 °F 64.0 °F 81% 30.11 in 8.0 mi WNW 12.7 mph - N/A   Mostly Cloudy
2:00 PM 69.8 °F 62.6 °F 78% 30.12 in 8.0 mi WNW 12.7 mph - N/A   Mostly Cloudy
2:21 PM 69.8 °F 62.6 °F 78% 30.12 in 9.0 mi WNW 11.5 mph 18.4 mph N/A   Overcast
2:53 PM 68.0 °F 61.0 °F 78% 30.12 in 10.0 mi WNW 13.8 mph - N/A   Overcast
3:53 PM 68.0 °F 59.0 °F 73% 30.13 in 10.0 mi NW 13.8 mph 24.2 mph N/A   Partly Cloudy
4:53 PM 64.0 °F 51.1 °F 63% 30.15 in 10.0 mi NW 16.1 mph 26.5 mph N/A   Clear
5:53 PM 63.0 °F 43.0 °F 48% 30.18 in 10.0 mi NW 11.5 mph 26.5 mph N/A   Clear
6:53 PM 60.8 °F 44.6 °F 55% 30.20 in 10.0 mi NW 11.5 mph 24.2 mph N/A   Clear
7:53 PM 59.0 °F 44.1 °F 58% 30.22 in 10.0 mi NNW 9.2 mph 18.4 mph N/A   Clear
8:53 PM 57.9 °F 46.9 °F 67% 30.23 in 10.0 mi NNW 10.4 mph 19.6 mph N/A   Clear
9:53 PM 57.0 °F 46.9 °F 69% 30.25 in 10.0 mi NNW 9.2 mph - N/A   Clear
10:53 PM 57.9 °F 46.0 °F 65% 30.24 in 10.0 mi NNW 8.1 mph - N/A   Clear
11:53 PM 55.9 °F 46.0 °F 69% 30.24 in 10.0 mi North 4.6 mph - N/A   Clear